Rbgn^[z[y[W
メイン
   新天体発見情報
     Comet C/2024 T5 (ATLAS)
投稿するにはまず登録を

スレッド表示 | 新しいものから 前のトピック | 次のトピック | 下へ
投稿者 スレッド
佐藤裕久
投稿日時: 2024-11-16 13:42
モデレータ
登録日: 2005-6-12
居住地: 日本
投稿: 2661
オンライン
Comet C/2024 T5 (ATLAS)

10月2.9日UT、南アフリカ Sutherlandにある小惑星地球衝突最終警報システム Asteroid Terrestrial-
impact Last Alert System (ATLAS)調査プログラムのコースに0.5-m Schmidt 反射望遠鏡で得たCCD
画像から小惑星状天体を発見した。
小惑星センターのNEOCPとPCCPのwebpageに公表された後、他のCCD位置観測者によって彗星状である
ことがわかった。
佐藤英貴氏(東京都文京区)は、10月3.44日UT、60-秒CCD露出12枚のスタック, 0.51-m f/6.8 アストロ
グラフ, Siding Spring, NSW, オーストラリア, 遠隔操作: 恒星状に見えるだけ、4".3の円形範囲で
測定した光度は18.9等であった。
A. Hale (Cloudcroft, ニューメキシコ州)は、10月19.2日、Cerro Tololoにある0.35-m f/3 Cassegrain
反射望遠鏡で得た画像では、"同様の明るさの恒星と比較して、おそらくわずかに拡散している"本質的
には恒星状天体に見える。
J. Camarasaは、MPCへの報告によると、10月25.9日、Skygems Namibia Remote天文台の0.36-m f/8 反射
望遠鏡で得た画像では、この天体が非常に拡散した11"のコマをが見える。

彗星機能の報告は次のとおり、

OC   Date        Reporter            Coma    Tail   PA   Comet     Date
                                                        (T/P)   Reported
W89  2024-10-19  A. Hale                                  P   2024-10-19.77
L81  2024-10-25  J. Camarasa        11"                   P   2024-10-26.33
Q62  2024-11-01  N. Paul             5"                   T   2024-11-01.71

発見位置は次のとおり(PCCP A11cek3)、

     2024 UT             R.A. (2000) Decl.       Mag.
     Oct.  2.92918    1 23 12.65   -54 20 38.1   19.2
           2.93099    1 23 12.52   -54 20 37.6   18.9
           2.93376    1 23 12.47   -54 20 38.8   19.0
           2.95853    1 23 11.76   -54 20 41.0   19.0

MPCの双曲線軌道要素、位置推算表は次のとおり、

Orbital elements:
    C/2024 T5 (ATLAS)                                                           
Epoch 2024 Oct. 17.0 TT = JDT 2460600.5                                         
T 2027 May 7.25754 TT                                   Rudenko                 
q   3.8483500            (2000.0)            P               Q                  
z  -0.0000283      Peri.  352.38572     -0.10456891     -0.61899530             
 +/-0.0000000      Node   100.69996     +0.94910875     -0.29591896             
e   1.0001090      Incl.   52.38932     +0.29708236     +0.72751411             
From 108 observations 2024 Oct. 2-Nov. 6, mean residual 0".3.                   
                                                                                
Ephemeris:
Date    TT    R. A. (2000) Decl.     Delta      r    Elong.  Phase   m1
2024 10 08    01 20 34.3 -54 28 53   7.8656  8.4017   119.4     5.9  19.2
...
2024 10 23    01 12 34.7 -54 34 57   7.8612  8.3090   113.6     6.3  19.2
...
2024 10 31    01 08 29.5 -54 26 40   7.8711  8.2595   109.7     6.5  19.1
...
2024 11 06    01 05 38.5 -54 15 14   7.8833  8.2223   106.7     6.6  19.1
2024 11 07    01 05 11.4 -54 12 55   7.8857  8.2162   106.1     6.7  19.1
2024 11 08    01 04 44.8 -54 10 28   7.8881  8.2100   105.6     6.7  19.1
...
2024 11 14    01 02 15.3 -53 53 23   7.9048  8.1728   102.3     6.8  19.1
...
2024 11 22    00 59 27.0 -53 24 32   7.9310  8.1233    97.7     6.9  19.1
...
2024 12 07    00 56 03.5 -52 13 58   7.9882  8.0304    88.9     7.0  19.1

(MPEC 2024-V97、CBET 5472)

スレッド表示 | 新しいものから 前のトピック | 次のトピック | トップ

投稿するにはまず登録を
 
© 1999 Tsutomu Seki.